{"data":{"norad_id":69596,"epoch":"2026-09-20T04:35:54.169152Z","epoch_age_seconds":55538,"freshness":"FRESH","line1":"1 69596U 26140E   26263.19159918  .00001721  00000+0  25465-3 0  9995","line2":"2 69596  51.9047 320.5643 0000647 301.2961  58.7938 14.79934446 15552","mean_motion":14.79934446,"eccentricity":6.47e-5,"inclination_deg":51.9047,"raan_deg":320.5643,"arg_perigee_deg":301.2961,"mean_anomaly_deg":58.7938,"bstar":0.00025465,"rev_number":1555,"period_min":97.301607101049,"perigee_km":629.07766839126,"apogee_km":629.9844606388,"semimajor_km":7007.668064515,"source":"CELESTRAK","updated_at":"2026-09-20T09:00:24.999359Z"}}